Simultaneous Nadir Overpasses (SNOs) Predictions

Prediction of SNOs between GOES-15 and TERRA Satellite Orbit:

Table of predicted SNOs for the next 14.0 days since TLE Epoch: 11/17/2012
Index Date Time (GOES-15) GOES-15 Lat,Lon TERRA Lat,Lon Distance(km) Time Diff (sec)
1 11/18/2012 07:21:43 0.20,-134.72 0.50,-133.40 150.34 80
2 11/18/2012 19:45:39 -0.18,-134.77 0.60,-138.56 430.05 80
3 11/20/2012 07:09:34 0.20,-134.81 1.11,-130.44 496.01 80
4 11/20/2012 19:33:29 -0.18,-134.86 -0.02,-135.60 84.27 80
5 11/22/2012 19:18:39 -0.18,-134.95 -0.66,-132.65 261.34 80
6 11/23/2012 07:42:43 0.16,-134.95 -0.47,-137.84 328.80 80
7 11/25/2012 07:27:53 0.17,-135.03 0.20,-134.89 16.26 80
8 11/27/2012 07:15:42 0.17,-135.11 0.82,-131.93 360.93 80
9 11/27/2012 19:39:38
